{"data":{"norad_id":63905,"intl_designator":"2025-095R","name":"STARLINK-34114","alt_names":[],"object_type":"PAYLOAD","status":"ACTIVE","operator":null,"country":"US","launch_date":"2025-05-10","launch_site_code":"AFETR","launch_vehicle":null,"mission":null,"orbit_class":"UNKNOWN","rcs_meters":null,"size_class":null,"mass_kg":null,"dimensions":null,"purposes":["comms"],"wikipedia_slug":null,"has_3d_model":false,"image_url":null,"decayed_at":null,"tle_current":{"epoch":"2026-09-20T00:27:02.137536Z","epoch_age_seconds":188706,"freshness":"STALE","line1":"1 63905U 25095R   26263.01877474  .00016394  00000+0  60364-3 0  9995","line2":"2 63905  43.0009 159.1208 0000792 269.5316  90.5445 15.27595779 77498","mean_motion":15.27595779,"eccentricity":7.92e-5,"inclination_deg":43.0009,"raan_deg":159.1208,"arg_perigee_deg":269.5316,"mean_anomaly_deg":90.5445,"bstar":0.00060364,"rev_number":7749,"period_min":94.265775003821,"perigee_km":482.45844624709,"apogee_km":483.54525064068,"semimajor_km":6861.1388484439,"source":"CELESTRAK","updated_at":"2026-09-21T09:00:35.145984Z"}}}